Location: Nemiskam
(49.4820°N, 111.2775°W)
Time: 10:18:24
(UTC+00:00)

Envisat - Pass Details

Date: 03 December 2022
Orbit: 763 x 765 km, 98.2° (Epoch: 28 January)

Event Time Altitude Azimuth Distance (km) Brightness Sun altitude
Rises 11:00:10 0° 21° (NNE) 3,246 6.6 -38.3°
Reaches altitude 10° 11:02:41 10° 30° (NNE) 2,314 5.8 -37.9°
Enters shadow 11:04:18 19° 41° (NE) 1,780 5.3 -37.7°
